Regional Weather Roundup
Issued by NWS

Home | Current Version | Previous Version | Text Only | Print | Product List | Glossary On
Versions: 1 2 3 4 5 6 7 8 9 10 11 12 13 14 15 16 17 18 19 20 21 22 23 24 25 26 27 28 29 30 31 32 33 34 35 36 37 38 39 40 41 42 43 44 45 46 47 48 49 50
000
ASUS43 KMKX 260600
RWRWI

WISCONSIN REGIONAL WEATHER ROUNDUP
NATIONAL WEATHER SERVICE MILWAUKEE/SULLIVAN WI
1200 AM CST FRI DEC 26 2014

NOTE: "FAIR" INDICATES FEW OR NO CLOUDS BELOW 12,000 FEET WITH NO
SIGNIFICANT WEATHER AND/OR OBSTRUCTIONS TO VISIBILITY.

WIZ001-002-006>008-014>016-023>028-260700-
NORTHWEST WISCONSIN

CITY           SKY/WX    TMP DP  RH WIND       PRES   REMARKS
SUPERIOR ARPT  CLOUDY    31  29  93 CALM      29.92S
ASHLAND        LGT SNOW  31  30  96 CALM      29.91S FOG
6HR MIN TEMP:  31; 6HR MAX TEMP:  32; 6HR PCP: TRACE;

HAYWARD        LGT SNOW  31  28  89 N5        29.88F FOG     WCI  26
6HR MIN TEMP:  30; 6HR MAX TEMP:  32; 6HR PCP:  0.07;

SIREN          LGT SNOW  31  31  99 NE5       29.88F WCI  26
CUMBERLAND     CLOUDY    30  28  93 N3        29.86F FOG
RICE LAKE      CLOUDY    30  30  99 N5        29.88F FOG     WCI  25
CHETEK         CLOUDY    30  29  97 CALM      29.87F FOG
LADYSMITH      CLOUDY    29  28  97 NE5       29.88F FOG     WCI  24
EAU CLAIRE     NOT AVBL
MENOMONIE      FAIR      31  29  96 CALM      29.87R FOG
NEW RICHMOND   MOCLDY    29  29 100 NE5       29.87R FOG     WCI  24
OSCEOLA        CLOUDY    32  32 100 CALM      29.91R FOG
$$

WIZ003>005-009-010-017-018-260700-
NORTH CENTRAL WISCONSIN

CITY           SKY/WX    TMP DP  RH WIND       PRES   REMARKS
MANITOWISH WTR LGT SNOW  28  28 100 CALM      29.88S
ARBOR VITAE    LGT SNOW  32  31  95 CALM      29.88S
WOODRUFF       LGT SNOW  32  31  95 CALM      29.88S
RHINELANDER    CLOUDY    28  27  96 CALM      29.87F FOG
6HR MIN TEMP:  28; 6HR MAX TEMP:  29; 6HR PCP:  0.02;

EAGLE RIVER    MIX PCPN  29  29 100 CALM      29.88S
LAND O LAKES   LGT SNOW  30  30  99 CALM      29.89S
PHILLIPS       CLOUDY    29  29  99 CALM      29.87F FOG
TOMAHAWK       CLOUDY    28  27  96 CALM      29.88F FOG
MEDFORD        CLOUDY    28  27  94 CALM      29.86S FOG
MERRILL        CLOUDY    28  28 100 CALM      29.88F FOG
$$

WIZ029-030-035-036-043>047-260700-
CENTRAL WISCONSIN

CITY           SKY/WX    TMP DP  RH WIND       PRES   REMARKS
WAUSAU         PTCLDY    29  27  92 E5        29.87F WCI  24
6HR MIN TEMP:  28; 6HR MAX TEMP:  32;

MOSINEE        PTCLDY    30  30 100 SE5       29.89S WCI  25
MARSHFIELD     PTCLDY    28  26  92 E5        29.87F FOG     WCI  23
6HR MIN TEMP:  28; 6HR MAX TEMP:  32;

STEVENS POINT  PTCLDY    27  26  99 CALM      29.90S FOG
WAUPACA        MOCLDY    30  29  96 CALM      29.92S FOG
WAUTOMA        NOT AVBL
WISC RAPIDS    PTCLDY    27  25  92 CALM      29.89F FOG
6HR MIN TEMP:  26; 6HR MAX TEMP:  31;

CAMP DOUGLAS   NOT AVBL
$$

WIZ011>013-019>022-031-037>040-048>050-260700-
NORTHEAST WISCONSIN

CITY           SKY/WX    TMP DP  RH WIND       PRES   REMARKS
ANTIGO         MOCLDY    26  26 100 SE3       29.88S FOG
SHAWANO        FOG       31  30  95 CALM      29.93S VSB 1
OCONTO         PTCLDY    28  28 100 CALM      29.93F
STURGEON BAY   PTCLDY    34  30  86 S6        29.96S WCI  29
6HR MIN TEMP:  34; 6HR MAX TEMP:  36;

GREEN BAY      MOCLDY    31  29  92 CALM      29.94S FOG
6HR MIN TEMP:  30; 6HR MAX TEMP:  34;

MANITOWOC      NOT AVBL
APPLETON       CLOUDY    32  32 100 SE5       29.92S WCI  27
CLINTONVILLE   PTCLDY    28  28 100 CALM      29.92S FOG
OSHKOSH        CLOUDY    36  32  85 S10       29.92S WCI  28
6HR MIN TEMP:  30; 6HR MAX TEMP:  37;

$$

WIZ032>034-041-042-053>061-260700-
SOUTHWEST WISCONSIN

CITY           SKY/WX    TMP DP  RH WIND       PRES   REMARKS
LA CROSSE      MOCLDY    33  29  85 SE6       29.84F WCI  28
6HR MIN TEMP:  29; 6HR MAX TEMP:  37;

SPARTA         MOCLDY    27  27 100 CALM      29.87F
VIROQUA        MOCLDY    36  34  92 SE10      29.84F WCI  28
BOSCOBEL       PTCLDY    39  32  76 S3        29.88F
6HR MIN TEMP:  32; 6HR MAX TEMP:  41;

PRAIRIE DU CHI PTCLDY    38  31  74 SE6       29.86S WCI  34
PLATTEVILLE    PTCLDY    37  34  86 CALM      29.89S
$$

WIZ056-057-062-063-064-067-068-260700-
SOUTH CENTRAL WISCONSIN

CITY           SKY/WX    TMP DP  RH WIND       PRES   REMARKS
REEDSBURG      PTCLDY    38  32  81 S8        29.88F WCI  32
BARABOO/DELLS  PTCLDY    37  32  82 S7        29.89S WCI  32
LONE ROCK      NOT AVBL
MINERAL POINT  PTCLDY    36  34  93 SE9       29.89S WCI  29
MADISON        CLOUDY    37  32  82 S7        29.92F WCI  32
6HR MIN TEMP:  37; 6HR MAX TEMP:  40;

MIDDLETON      CLOUDY    39  33  80 S10       29.91F WCI  32
WATERTOWN      CLOUDY    37  35  93 S5        29.93F WCI  33
MONROE         MOCLDY    36  34  93 S14       29.91S WCI  27
JANESVILLE     MOCLDY    39  32  75 S10       29.93F WCI  32
$$

WIZ051-052-058>065-066-070>072-260700-
SOUTHEAST WISCONSIN

CITY           SKY/WX    TMP DP  RH WIND       PRES   REMARKS
MILWAUKEE      CLOUDY    40  33  76 S12       29.97F WCI  33
6HR MIN TEMP:  39; 6HR MAX TEMP:  41;

WAUKESHA       CLOUDY    36  32  87 S9G16     29.96F WCI  29
MILWAUKEE/TIMM CLOUDY    39  32  75 SW13      29.97F WCI  32
RACINE         CLOUDY    40  33  76 S10       29.99F WCI  33
6HR MIN TEMP:  39; 6HR MAX TEMP:  41;

BURLINGTON     MOCLDY    37  32  82 S14       29.96F WCI  28
KENOSHA        CLOUDY    40  33  76 SW15      29.97F WCI  32
6HR MIN TEMP:  39; 6HR MAX TEMP:  41;

FOND DU LAC    CLOUDY    38  32  79 S10       29.93S WCI  31
6HR MIN TEMP:  34; 6HR MAX TEMP:  39;

SHEBOYGAN      CLOUDY    37  32  82 S7        29.95S WCI  32
6HR MIN TEMP:  33; 6HR MAX TEMP:  38;

WEST BEND      CLOUDY    37  32  81 S9        29.95F WCI  31
JUNEAU         CLOUDY    36  33  90 S9        29.94F WCI  29
$$

LSZ147-162-260700-
LAKE SUPERIOR

STATION/POSITION TIME  TEMP    WIND        PRES    WAVE
                       AIR SEA DIR/SP/G            HT/PER
                 (UTC) (F)     (DEG/KT/KT) (MB)    (FT/S)
DEVILS ISLAND    0500   35     340/  5/  6 1013.7R
PORT WING        0500   32     140/  1/  2 1013.2R
SAXON HARBOR     0500   32      CALM  /  3 1012.9S
$$

LMZ867-665-643>646-260700-
LAKE MICHIGAN

STATION/POSITION TIME  TEMP    WIND        PRES    WAVE
                       AIR SEA DIR/SP/G            HT/PER
                 (UTC) (F)     (DEG/KT/KT) (MB)    (FT/S)
CHAMBERS ISLAND  0500   32        CALM     1014.2S
NORTHPORT PIER   0501   32      CALM  /  1 1014.2S
SISTER BAY       0413          140/  2/  4   N/A
ALGOMA LAKESHORE 0515             CALM       N/A
KEWAUNEE LAKESHO 0500   34      CALM  /  2 1013.5R
SHEBOYGAN LAKESH 0500   39 37  210/ 13/ 15 1015.1R
PORT WASHINGTON  0500   41     240/  5/ 10 1015.6R
MILWAUKEE LAKESH 0500   41     220/ 13/ 17   N/A
KENOSHA   LAKESH 0500   42     200/ 11/ 15 1015.6S
$$

TC  - TEMPERATURE IN CELSIUS
VSB - VISIBILITY IN STATUTE MILES
WCI - WIND CHILL INDEX
HX  - HEAT INDEX



USA.gov is the U.S. government's official web portal to all federal, state and local government web resources and services.